Location: ?kun?ru
(16.3916°N, 80.8194°E)
Time: 15:31:44
(UTC+00:00)

Cosmos 1782 Rocket - Pass Details

Date: 19 May 2025
Orbit: 601 x 625 km, 82.5° (Epoch: 17 June)

Event Time Altitude Azimuth Distance (km) Brightness Sun altitude
Rises 22:52:10 0° 342° (NNW) 2,854 7.1 -16.8°
Reaches altitude 10° 22:54:30 10° 333° (NNW) 1,953 6.1 -16.3°
Maximum altitude 22:58:26 35° 268° (W) 988 4.1 -15.4°
Enters shadow 23:00:31 22° 219° (SW) 1,332 4.7 -15.0°
